Location: Ceske Budejovice
(48.9830°N, 14.4670°E)
Time: 12:33:04
(UTC+02:00)

ISS - Pass Details

Date: 07 July 2022
Orbit: 412 x 420 km, 51.6° (Epoch: 17 August)

Event Time Altitude Azimuth Distance (km) Brightness Sun altitude
Exits shadow 01:42:26 59° 161° (SSE) 488 -3.8 -18.0°
Maximum altitude 01:42:31 59° 153° (SSE) 486 -3.8 -18.0°
Drops below altitude 10° 01:45:50 10° 73° (ENE) 1,501 -0.6 -17.9°
Sets 01:48:03 0° 70° (ENE) 2,406 0.5 -17.8°
